Regional Weather Roundup
Issued by NWS Grand Forks, ND

Home | Current Version | Previous Version | Text Only | Print | Product List | Glossary Off
Versions: 1 2 3 4 5 6 7 8 9 10 11 12 13 14 15 16 17 18 19 20 21 22 23 24 25 26 27 28 29 30 31 32 33 34 35 36 37 38 39 40 41 42 43 44 45 46 47 48 49 50

000
ASUS43 KFGF 040710
RWRFGF
PRAIRIE TO PINES  WEATHER ROUNDUP
NATIONAL WEATHER SERVICE EASTERN NORTH DAKOTA/GRAND FORKS ND
200 AM CDT MON MAY 04 2015

 **SATELLITE DATA USED TO AUGMENT SKY COVER AT AUTOMATED STATIONS**
 *****  WEATHER ACROSS EASTERN NORTH DAKOTA  *****

CITY           SKY/WX    TMP DP  RH WIND       PRES   REMARKS
GRAND FORKS    CLEAR     39  29  67 NW7       30.08R
GRAND FRKS AFB CLEAR     40  27  59 N5        30.08R
GRAND FRKS NWS   N/A     39 N/A N/A N2          N/A
DEVILS LAKE    CLEAR     41  28  60 N5        30.10R
FARGO          CLEAR     43  26  51 NW9       30.07R
WAHPETON ARPT  SUNNY     45  25  45 N6        30.07R
$$

 ***** WEATHER ACROSS CENTRAL AND WESTERN NORTH DAKOTA  *****

CITY           SKY/WX    TMP DP  RH WIND       PRES   REMARKS
BISMARCK       PTCLDY    43  27  53 NE9       30.12S
MINOT          CLEAR     39  25  57 SW7       30.12R
JAMESTOWN      CLEAR     38  25  59 NW6       30.09R
MINOT AFB      CLEAR     34  27  76 W3        30.12R
GARRISON         N/A     38  26  62 NW6       30.13R
WILLISTON      CLEAR     35  23  61 N5        30.13R
DICKINSON      PTCLDY    38  26  62 S5        30.11R
HETTINGER      MOCLDY    35  25  66 CALM      30.13R
$$

 *****  OTHER AIRPORT OBSERVATIONS IN OUR AREA  *****

CITY           SKY/WX    TMP DP  RH WIND       PRES   REMARKS
WALHALLA       FAIR      37  32  81 NW3       30.10S
GRAFTON AIRPOR FAIR      43  32  65 NW8       30.10R
VALLEY CITY AR FAIR      45  27  49 N8        30.09R
CANDO          FAIR      37  28  70 N7        30.12R
CAVALIER APRT  FAIR      45  34  65 N3        30.10R
GWINNER        SUNNY     48  27  43 N9        30.09R
SHEYENNE NWR     N/A     43  26  51 NW2       29.95S
ROLLA          NOT AVBL
 ***** THE ABOVE OBSERVATIONS ARE NON NWS ARE NOT QUALITY
       CONTROLLED AND MAY MIS-REPORT RAIN FOR SNOW...
$$

  *****  WEATHER ACROSS NORTHERN MINNESOTA  *****

CITY           SKY/WX    TMP DP  RH WIND       PRES   REMARKS
FLAG ISLAND    CLEAR     45  39  81 NW9       30.05R
WARROAD        CLEAR     39  36  87 CALM      30.08R
ROSEAU         CLEAR     39  34  81 CALM      30.08R
HALLOCK        CLEAR     39  30  70 CALM      30.09R
THF RVR FALLS  CLEAR     46  34  61 N5        30.08R
BAUDETTE       CLEAR     38  35  89 W6        30.06R
WASKISH        CLEAR     34  30  86 CALM      30.06R
CROOKSTON      CLEAR     39  23  52 N5        30.09R
$$
  *****  WEATHER ACROSS CENTRAL AND WEST MINNESOTA  *****

CITY           SKY/WX    TMP DP  RH WIND       PRES   REMARKS
FOSSTON        NOT AVBL
BEMIDJI        CLEAR     36  30  79 CALM      30.06R
PARK RAPIDS    CLEAR     44  30  57 CALM      30.05R
ELBOW LAKE     FAIR      47  31  52 N5        30.05S
WADENA         CLEAR     46  28  49 CALM      30.05R
DETROIT LAKES  CLEAR     50  30  46 CALM      30.07R
MOORHEAD       CLEAR     43  27  52 N3        30.08R
FERGUS FALLS   CLEAR     45  28  53 N3        30.07S
MORRIS MN      CLEAR     46  27  46 NW8       30.05R
STAPLES        CLEAR     43  28  56 CALM      30.05R
$$
  *****  WEATHER ELSEWHERE ACROSS MINNESOTA  *****

CITY           SKY/WX    TMP DP  RH WIND       PRES   REMARKS
DULUTH         CLEAR     51  32  48 NW10      29.99R
INTRNTL FALLS  CLEAR     32  30  92 CALM      30.04R
ELY            CLEAR     41  34  75 NW6       30.01R
CLOQUET        CLEAR     50  30  46 NW8       30.01R
WHEATON        CLEAR     45  28  53 CALM      30.09R
BRAINERD       CLEAR     45  35  68 N7        30.05R
HIBBING        CLEAR     41  31  67 N8        30.02R
ALEXANDRIA     CLEAR     49  34  56 N7        30.06R
SAINT CLOUD    CLEAR     46  33  60 N3        30.01R
MINNEAPOLIS    MOCLDY    57  43  59 N7        29.98R
$$

  *****  WEATHER ACROSS SOUTH DAKOTA  *****

CITY           SKY/WX    TMP DP  RH WIND       PRES   REMARKS
SIOUX FALLS    MOCLDY    51  34  52 NE3       30.04R
BROOKINGS      CLEAR     46  30  53 CALM      30.08R
WATERTOWN      CLEAR     43  28  55 N5        30.08R
HURON          CLEAR     40  27  59 CALM      30.08R
SISSETON         N/A     42  25  50 NW8       30.07R
ABERDEEN       CLEAR     41  25  53 NE6       30.11R
MITCHELL       PTCLDY    45  35  68 NW6       30.08R
PIERRE         PTCLDY    46  24  42 NE7       30.09R
MOBRIDGE       CLEAR     40  25  55 CALM      30.09R
RAPID CITY     CLOUDY    47  34  60 CALM      30.10S
$$

  *****  SOME WEATHER IN NEARBY STATES *****

CITY           SKY/WX    TMP DP  RH WIND       PRES   REMARKS
GLASGOW MT     CLEAR     42  25  50 E13       30.08R
GREAT FALLS MT CLEAR     45  32  60 E5        29.95S
CHEYENNE WY    MOCLDY    48  41  76 E7        30.11S
SCOTTSBLUFF NE MOCLDY    54  39  57 E10       30.06F
OMAHA NE       CLOUDY    64  55  72 N9        29.92S
DES MOINES IA  CLOUDY    68  55  63 SW7       29.86S
DAVENPORT IA   LGT RAIN  60  56  86 E9        29.97S
CHICAGO IL     CLOUDY    67  47  48 SW15G22   29.90S
EAU CLAIRE WI  CLOUDY    52  50  93 N3        29.94R
LA CROSSE WI   CLOUDY    60  56  86 N6        29.91R
$$

  *****  SOME NATIONAL WEATHER *****

CITY           SKY/WX    TMP DP  RH WIND       PRES   REMARKS
LA GUARDIA NY  CLEAR     57  47  69 SE3       30.16S
RALEIGH NC     PTCLDY    57  51  80 SW5       30.24F
ATLANTA GA     PTCLDY    64  50  60 CALM      30.20S
NEW ORLEANS LA PTCLDY    64  56  75 CALM      30.10F
OKLAHOMA CITY  MOCLDY    63  56  78 S12       29.95F
ALBUQUERQUE NM MOCLDY    61  37  41 SW8       30.02R
SALT LAKE CITY CLOUDY    65  42  43 E8        29.94R
LOS ANGELES CA CLEAR     56  52  86 SW7       29.91R
BOISE ID       CLEAR     57  30  35 SE7       29.83R
SEATTLE WA     CLEAR     53  36  51 N7        29.88F
$$

*** WEATHER ACROSS MANITOBA...SASKATCHEWAN AND ONTARIO ***
                ***ONTARIO***

CITY           SKY/WX    TMP DP  RH WIND       PRES   REMARKS
GERALDTON      PTCLDY    39  36  87 W5        29.87S
THUNDER BAY    PTCLDY    46  36  66 SW9       29.93R
SIOUX LOOKOUT  CLEAR     37  37 100 NW3       29.98R
TORONTO        PTCLDY    61  41  48 S5        30.05R
BIG TROUT LK   FLURRIES  30  30 100 NW5       29.95R
PICKLE LAKE    NOT AVBL
DRYDEN         CLEAR     39  37  93 SW8       30.00R
KENORA         CLEAR     41  36  81 NW9       30.03R
$$
                *** MANITOBA***

CITY           SKY/WX    TMP DP  RH WIND       PRES   REMARKS
BRANDON        CLEAR     32  27  80 W3        30.11R
DAUPHIN        MOCLDY    43  32  65 W10       30.07R
ISLAND LAKE    CLOUDY    36  30  80 SW5       29.98R
PILOT MOUND      N/A     36  32  87 W1          N/A
THE PAS        PTCLDY    36  25  64 NW5       30.07R
THOMPSON       FLURRIES  34  28  80 SW5       29.93F
WINNIPEG       CLEAR     36  34  93 CALM      30.10R
LYNN LAKE      CLOUDY    30  28  93 NW13G20   29.98S WCI  20
CHURCHILL      LGT SNOW  21  19  93 N10       29.93S WCI  10
$$
                ***SASKATCHEWAN***

CITY           SKY/WX    TMP DP  RH WIND       PRES   REMARKS
ESTEVAN        CLEAR     36  34  93 S3        30.13R
KINDERSLEY     PTCLDY    32  27  80 S7        30.09R
LLOYDMINSTER   CLEAR     36  30  80 SW9       30.05S
PRINCE ALBERT  CLEAR     30  25  80 E3        30.10R
REGINA         PTCLDY    37  32  81 VRB2      30.12R
YORKTON        CLEAR     41  36  81 SW8       30.08S
N. BATTLEFORD  CLEAR     32  27  80 CALM      30.10R
LA RONGE       PTCLDY    25  21  86 CALM      30.10R
SASKATOON      CLEAR     36  30  80 W3        30.10S
SWIFT CURRENT  CLEAR     36  28  75 SE8       30.09S
$$
NOTE: THESE ARE AUTOMATED STATIONS WITH LIMITED QUALITY CONTROL
      "FAIR" INDICATES FEW OR NO CLOUDS BELOW 12,000 FEET WITH NO
      SIGNIFICANT WEATHER AND/OR OBSTRUCTIONS TO VISIBILITY.
      SKY/WX - SKY CONDITION AND SIGNIFICANT WEATHER.
      TMP - AIR TEMPERATURE.    DP   - DEWPOINT TEMPERATURE.
      RH  - RELATIVE HUMIDITY.  PRES - PRESSURE.
      HX  - HEAT INDEX.         WCI  - WIND CHILL INDEX.
$


USA.gov is the U.S. government's official web portal to all federal, state and local government web resources and services.